Regional Weather Roundup
Issued by NWS

Home | Current Version | Previous Version | Text Only | Print | Product List | Glossary Off
Versions: 1 2 3 4 5 6 7 8 9 10 11 12 13 14 15 16 17 18 19 20 21 22 23 24 25 26 27

000
ASUS45 KCYS 190710
RWRWY

WYOMING REGIONAL WEATHER ROUNDUP
NATIONAL WEATHER SERVICE CHEYENNE WY
1200 AM MST SUN NOV 19 2017

NOTE:  "FAIR" INDICATES FEW OR NO CLOUDS BELOW 12,000 FEET
WITH NO SIGNIFICANT WEATHER AND/OR OBSTRUCTIONS TO VISIBILITY.

WYZ001-190800-
YELLOWSTONE NATIONAL PARK

CITY           SKY/WX    TMP DP  RH WIND       PRES   REMARKS
LK YELLOWSTONE   N/A     15  13  91 CALM      30.27F
W YELLOWSTONE  NOT AVBL

$$
WYZ002>013-054>058-071-098>099-190800-
NORTHERN WYOMING

CITY           SKY/WX    TMP DP  RH WIND       PRES   REMARKS
JACKSON        FAIR       5   2  87 N9          N/A  WCI  -9
CODY           FAIR      31  15  52 W7        30.12S WCI  24
GREYBULL       FAIR      24  17  74 SE6       30.15F WCI  17
WORLAND        FAIR      21  17  84 SE5       30.15S WCI  15
SHERIDAN       FAIR      21  17  84 CALM      30.05F
BUFFALO        FAIR      30  12  47 S5        30.06F WCI  25
GILLETTE       FAIR      33  17  51 SW13      30.08F WCI  24
HULETT         FAIR      32  18  55 W3        30.10S
NEWCASTLE      FAIR      21  14  73 CALM      30.14F

$$
WYZ014>020-022>026-101>103-190800-
CENTRAL WYOMING

CITY           SKY/WX    TMP DP  RH WIND       PRES   REMARKS
BIG PINEY      FAIR       5   1  83 CALM      30.31F
PINEDALE       FAIR       9   5  85 W3        30.33R
DUBOIS         FAIR      21  10  63 NW18G24   30.16F WCI   6
LANDER         FAIR      22  14  71 SE3       30.16F
RIVERTON       FAIR      23  15  71 SW6       30.17S WCI  16
CASPER         FAIR      28  17  63 SW23G35   30.16R WCI  14
DOUGLAS        FAIR      22  18  85 CALM      30.16F

$$
WYZ021-027>030-104>119-190800-
SOUTHERN WYOMING

CITY           SKY/WX    TMP DP  RH WIND       PRES   REMARKS
EVANSTON       FAIR      18  15  88 E6        30.30S WCI  10
FORT BRIDGER   FAIR      12   9  85 SW7       30.33S WCI   2
ROCK SPRINGS   FAIR      18  10  71 S3        30.31F
DIXON          FAIR      17   8  70 SE5       30.36F WCI   9
RAWLINS        FAIR      22  13  68 SE6       30.27F WCI  14
SARATOGA       FAIR      18   7  62 SE9       30.29S WCI   6
LARAMIE        FAIR      22   7  52 VRB5      30.21F WCI  16
CHEYENNE       FAIR      34  10  37 W16       30.19F WCI  24
TORRINGTON     FAIR      29  17  61 W6        30.18F WCI  23
PINE BLUFFS    FAIR      21  14  73 MISG      30.22F

$$




USA.gov is the U.S. government's official web portal to all federal, state and local government web resources and services.